TimeCST,TemperatureF,Dew PointF,Humidity,Sea Level PressureIn,VisibilityMPH,Wind Direction,Wind SpeedMPH,Gust SpeedMPH,PrecipitationIn,Events,Conditions,WindDirDegrees,DateUTC
12:53 AM,39.9,36.0,86,30.07,10.0,Calm,Calm,-,N/A,,Clear,0,2013-02-15 06:53:00
1:53 AM,37.0,35.1,93,30.07,10.0,ESE,3.5,-,N/A,,Clear,120,2013-02-15 07:53:00
2:53 AM,36.0,34.0,93,30.06,10.0,East,4.6,-,N/A,,Clear,100,2013-02-15 08:53:00
3:53 AM,36.0,34.0,93,30.08,10.0,Calm,Calm,-,N/A,,Clear,0,2013-02-15 09:53:00
4:53 AM,36.0,34.0,93,30.09,10.0,Calm,Calm,-,N/A,,Clear,0,2013-02-15 10:53:00
5:53 AM,36.0,34.0,93,30.11,10.0,Calm,Calm,-,N/A,,Clear,0,2013-02-15 11:53:00
6:53 AM,35.1,33.1,92,30.11,10.0,SE,4.6,-,N/A,,Partly Cloudy,130,2013-02-15 12:53:00
7:53 AM,41.0,37.9,89,30.12,10.0,Calm,Calm,-,N/A,,Partly Cloudy,0,2013-02-15 13:53:00
8:53 AM,48.0,39.9,74,30.13,10.0,West,8.1,-,N/A,,Partly Cloudy,280,2013-02-15 14:53:00
9:53 AM,51.1,39.9,66,30.13,10.0,Variable,6.9,-,N/A,,Partly Cloudy,0,2013-02-15 15:53:00
10:53 AM,54.0,41.0,62,30.13,10.0,NW,5.8,-,N/A,,Partly Cloudy,310,2013-02-15 16:53:00
11:53 AM,55.9,37.0,49,30.11,10.0,NW,9.2,-,N/A,,Partly Cloudy,310,2013-02-15 17:53:00
12:53 PM,57.0,36.0,45,30.08,10.0,NNW,10.4,-,N/A,,Scattered Clouds,340,2013-02-15 18:53:00
1:53 PM,55.0,36.0,49,30.08,10.0,NW,13.8,-,N/A,,Mostly Cloudy,310,2013-02-15 19:53:00
2:53 PM,52.0,35.1,53,30.08,10.0,NW,11.5,-,N/A,,Mostly Cloudy,320,2013-02-15 20:53:00
3:53 PM,51.1,35.1,54,30.09,10.0,NW,5.8,-,N/A,,Mostly Cloudy,320,2013-02-15 21:53:00
4:53 PM,50.0,34.0,54,30.09,10.0,North,5.8,-,N/A,,Mostly Cloudy,350,2013-02-15 22:53:00
5:53 PM,48.0,34.0,58,30.10,10.0,North,5.8,-,N/A,,Mostly Cloudy,350,2013-02-15 23:53:00
6:53 PM,45.0,34.0,65,30.11,10.0,North,5.8,-,N/A,,Scattered Clouds,10,2013-02-16 00:53:00
7:53 PM,44.1,35.1,71,30.11,10.0,North,4.6,-,N/A,,Mostly Cloudy,10,2013-02-16 01:53:00
8:53 PM,43.0,34.0,71,30.12,10.0,North,9.2,-,N/A,,Scattered Clouds,360,2013-02-16 02:53:00
9:53 PM,42.1,30.0,62,30.13,10.0,NNE,11.5,-,N/A,,Mostly Cloudy,20,2013-02-16 03:53:00
10:53 PM,41.0,30.0,65,30.13,10.0,NNE,11.5,-,N/A,,Mostly Cloudy,20,2013-02-16 04:53:00
11:53 PM,39.0,28.9,67,30.13,10.0,North,8.1,-,N/A,,Mostly Cloudy,10,2013-02-16 05:53:00